Regional Weather Roundup
Issued by NWS

Home | Current Version | Previous Version | Graphics & Text | Print | Product List | Glossary On
Versions: 1 2 3 4 5 6 7 8 9 10 11 12 13 14 15 16 17 18 19 20 21 22 23 24 25 26 27 28 29 30 31 32 33 34 35 36 37 38 39 40 41 42 43 44 45 46 47 48 49 50
000
ASUS43 KLOT 011906
RWRIL

ILLINOIS REGIONAL WEATHER ROUNDUP
NATIONAL WEATHER SERVICE CHICAGO/ROMEOVILLE IL
100 PM CST SUN MAR 01 2015

NOTE: "FAIR" INDICATES FEW OR NO CLOUDS BELOW 12,000 FEET WITH NO
SIGNIFICANT WEATHER AND/OR OBSTRUCTIONS TO VISIBILITY.

* THESE STATIONS ARE NOT UNDER NWS QUALITY CONTROL. THEY ALSO MAY NOT
  REPORT WEATHER SUCH AS PRECIPITATION OR FOG.

ILZ001-002-007-009-015-016-024-012000-
NORTHWEST ILLINOIS

CITY           SKY/WX    TMP DP  RH WIND       PRES   REMARKS
MOLINE         CLOUDY    26  15  63 W5        30.35F WCI  20
STERLING*      SUNNY     25  16  68 W8        30.35F WCI  16
$$

ILZ003-004-008-010-011-017-018-012000-
NORTH CENTRAL ILLINOIS

CITY           SKY/WX    TMP DP  RH WIND       PRES   REMARKS
ROCKFORD       PTSUNNY   25  14  63 NW8       30.32F WCI  16
FREEPORT*      SUNNY     21  15  78 SW7       30.32F WCI  13
DE KALB*       PTSUNNY   19  17  91 W9        30.32F WCI   9
$$

ILZ005-006-012>014-019>023-012000-
NORTHEAST ILLINOIS

CITY           SKY/WX    TMP DP  RH WIND       PRES   REMARKS
CHICAGO-OHARE  CLOUDY    23  16  74 W7        30.31F WCI  15
CHICAGO-MIDWAY FLURRIES  25  18  74 SW9       30.32F WCI  15
AURORA         PTSUNNY   22  15  75 W6        30.33F WCI  14
LANSING*       LGT SNOW  24  19  82 W6        30.33F WCI  17
WAUKEGAN       CLOUDY    24  16  71 SW9       30.29F WCI  14
DUPAGE AIRPORT PTSUNNY   22  15  75 W8        30.31F WCI  12
WHEELING       CLOUDY    24  15  68 W7        30.33F WCI  16
NORTHERLY ISL    N/A     27  18  69 CALM        N/A
$$

LMZ740>746-012000-
SOUTHERN LAKE MICHIGAN

STATION/POSITION SKY/WX   TEMP    WIND        PRES    VSBY  WAVE
                          AIR SEA DIR/SP/G                  HT/PER
                          (F)     (DEG/KT/KT) (MB)    (MI)  (FT/S)
WAUKEGAN HARBOR            24     260/  8/ 11   N/A
HARRISON CRIB              22     200/  3/  4   N/A
BURNHAM HARBOR             26     290/  1/  5   N/A
CALUMET HARBOR             25     240/  4/  6 1025.7F
MICHIGAN CITY              21     230/  3/  4   N/A
$$

ILZ025>027-034>036-040-047-049-050-058-095>099-012000-
WEST-CENTRAL ILLINOIS

CITY           SKY/WX    TMP DP  RH WIND       PRES   REMARKS
QUINCY         MOSUNNY   27  20  75 NW5       30.38F WCI  22
MACOMB*        MOSUNNY   25  19  79 NW7       30.41S WCI  17
$$

ILZ028>032-037-038-041>044-048-051>054-059>061-012000-
CENTRAL ILLINOIS

CITY           SKY/WX    TMP DP  RH WIND       PRES   REMARKS
DECATUR        CLOUDY    27  22  81 N8        30.34F WCI  19
PEORIA         CLOUDY    28  19  69 VRB5      30.36F WCI  23
SPRINGFIELD    CLOUDY    28  21  75 N8        30.36F WCI  20
TAYLORVILLE    NOT AVBL
$$

ILZ033-039-045-046-055>057-062-063-012000-
EAST-CENTRAL ILLINOIS

CITY           SKY/WX    TMP DP  RH WIND       PRES   REMARKS
CHAMPAIGN      CLOUDY    26  22  84 NW8       30.33F FOG     WCI  18
MATTOON        LGT SNOW  29  25  85 NW7       30.32F VSB 1   WCI  22
$$

ILZ079-100>102-012000-
SOUTHWEST ILLINOIS

CITY           SKY/WX    TMP DP  RH WIND       PRES   REMARKS
CAHOKIA*       CLOUDY    31  27  85 NW6       30.36F WCI  25
$$

ILZ064>066-069>071-074>076-080>082-084>086-088>090-092>094-012000-
SOUTH-CENTRAL ILLINOIS

CITY           SKY/WX    TMP DP  RH WIND       PRES   REMARKS
CARBONDALE     CLOUDY    33  29  85 NW6       30.36F FOG     WCI  28
MARION         CLOUDY    34  32  93 NW8       30.35F WCI  27
MT. VERNON     CLOUDY    32  27  80 CALM      30.35F
$$

ILZ067-068-072-073-078-083-087-091-012000-
SOUTHEAST ILLINOIS

CITY           SKY/WX    TMP DP  RH WIND       PRES   REMARKS
LAWRENCEVILLE  CLOUDY    33  31  92 CALM      30.34F FOG
$$

ABBREVIATIONS USED IN REMARKS
   TC - TEMPERATURE IN CELSIUS
  WCI - WIND CHILL INDEX
   HX - HEAT INDEX
  VSB - VISIBILITY
$$



USA.gov is the U.S. government's official web portal to all federal, state and local government web resources and services.